Starlink 6320

operational
NORAD ID: 57336 Int'l Des: 2023-099 Owner: SPXS Country: US Constellation: starlink
LEOCIRCULAR

About Starlink 6320

Description loading...

Live Position

Loading 3D Globe...

Upcoming Passes

Altitude History

Altitude vs Time

uPlot chart will show altitude changes over time

Two-Line Element Set

1 57336U 23099J 25353.26991011 .00000561 00000-0 56557-4 0 9998
2 57336 43.0052 325.5678 0001071 272.9818 87.0902 15.02547957134023
Epoch: Dec 19, 2025 • Age: 26 hours

Current Status

Altitude 558.4 km
Velocity 7.58 km/s
Sub-Earth Point 13.54°N, 95.15°W
Launch Date Jul 16, 2023
Age 2.4 years
Type internet

Technical Details

Classification Payload
Mass 305.00 kg
Dry Mass 290.00 kg
Total Mass 305.00 kg
Length 0.20 m
Diameter 2.80 m
Span 9.00 m
Shape Box + pan
Manufacturer SPXS
Bus Type Starlink
Phase Status In Orbit
Owner/State SPXS/US

Large Constellations

Loading constellations...